Liberia, Costa Rica

5:57 AM CST on August 26, 2016 (GMT -0600)
Liberia

Weather History for 78774 - September, 2012

Change the Weather History Date:

Tuesday, September 4, 2012

  Actual Average Record
Temperature  
Mean Temperature 81 °F -  
Max Temperature 89 °F 85 °F - ()
Min Temperature 73 °F 73 °F - ()
Cooling Degree Days 16    
Growing Degree Days 31 (Base 50)    
Moisture  
Dew Point 72 °F    
Average Humidity 69    
Maximum Humidity 88    
Minimum Humidity 47    
Precipitation  
Precipitation 0.00 in - - ()
Sea Level Pressure  
Sea Level Pressure 29.92 in    
Wind  
Wind Speed 5 mph ()    
Max Wind Speed 12 mph    
Max Gust Speed -    
Visibility 7.5 miles    
Events Rain , Thunderstorm    
T = Trace of Precipitation, MM = Missing Value Source: Averaged Metar Reports

Daily Weather History Graph

Daily Weather History Graph

Search for Another Location

Airport or City:

Trip Planner

Search our weather history database for the weather conditions in past years. The results will help you decide how hot, cold, wet, or windy it might be!

Date:

Astronomy

Sep. 04, 2012 Rise Set
Actual Time 5:32 AM CST 5:49 PM CST
Civil Twilight 5:11 AM CST 6:10 PM CST
Nautical Twilight 4:46 AM CST 6:35 PM CST
Astronomical Twilight 4:21 AM CST 7:00 PM CST
Moon 8:42 PM CST (9/4) 8:41 AM CST (9/4)
Length of Visible Light 12h 59m
Length of Day
12h 16m
Waning Gibbous, 83% of the Moon is Illuminated
Sep 4
Waning Gibbous
Sep 8
Last Quarter
Sep 15
New
Sep 22
First Quarter
Sep 29
Full

Hourly Weather History & Observations

Time (CST) Temp. Heat Index Dew Point Humidity Pressure Visibility Wind Dir Wind Speed Gust Speed Precip Events Conditions
6:00 AM 74 °F - 71 °F 86% 29.91 in 12 mi SE 4.6 mph - -   Overcast
6:00 AM 73.4 °F - 69.8 °F 88% 29.90 in 6.2 mi SE 4.6 mph - N/A   Mostly Cloudy
7:00 AM 77.0 °F - 71.6 °F 83% 29.90 in 6.2 mi South 3.5 mph - N/A   Scattered Clouds
8:00 AM 82.4 °F 88.2 °F 73.4 °F 74% 29.92 in 6.2 mi South 5.8 mph - N/A   Mostly Cloudy
9:00 AM 85 °F - 73 °F 61% 29.95 in 12 mi ENE 5.8 mph - -   Scattered Clouds
9:00 AM 84.2 °F 90.9 °F 73.4 °F 70% 29.93 in 6.2 mi ENE 5.8 mph - N/A   Mostly Cloudy
10:00 AM 86.0 °F 91.8 °F 71.6 °F 62% 29.95 in 6.2 mi ESE 8.1 mph - N/A   Mostly Cloudy
11:00 AM 86.0 °F 91.8 °F 71.6 °F 62% 29.95 in 6.2 mi East 8.1 mph - N/A   Mostly Cloudy
12:00 PM 88 °F - 71 °F 48% 29.94 in 12 mi East 8.1 mph - -   Overcast
12:00 PM 87.8 °F 93.8 °F 71.6 °F 58% 29.93 in 6.2 mi East 8.1 mph - N/A   Mostly Cloudy
1:00 PM 87.8 °F 93.8 °F 71.6 °F 58% 29.91 in 6.2 mi ESE 8.1 mph - N/A   Mostly Cloudy
2:00 PM 84.2 °F 87.3 °F 68.0 °F 58% 29.89 in 6.2 mi East 11.5 mph - N/A   Mostly Cloudy
3:00 PM 88 °F - 71 °F 47% 29.88 in 9 mi East 3.5 mph - - Rain , Thunderstorm Thunderstorms and Rain
3:00 PM 87.8 °F 92.6 °F 69.8 °F 55% 29.87 in 6.2 mi East 3.5 mph - N/A Thunderstorm Light Thunderstorm
4:00 PM 78.8 °F - 71.6 °F 78% 29.88 in 6.2 mi SE 6.9 mph - N/A Rain Light Rain
5:00 PM 80.6 °F 85.4 °F 73.4 °F 79% 29.90 in 6.2 mi West 3.5 mph - N/A   Overcast
6:00 PM 80 °F - 73 °F 74% 29.93 in 12 mi South 2.3 mph - -   Partly Cloudy
6:00 PM 80.6 °F 85.4 °F 73.4 °F 79% 29.91 in 6.2 mi South 2.3 mph - N/A   Overcast
7:00 PM 78.8 °F - 73.4 °F 83% 29.92 in 6.2 mi ENE 3.5 mph - N/A   Overcast
8:00 PM 78.8 °F - 73.4 °F 83% 29.94 in 6.2 mi Calm Calm - N/A   Overcast